This is the latest recevied weather packets stored in our database for station/object JH0FOG-13. If no packets are shown the sender has not sent any weather packets the latest 10 day(s).
| Time | Temp. | Humidity | Pressure | Rain* | Wind** | Luminosity | Snow |
|---|---|---|---|---|---|---|---|
| 1777756802 | 10.56° C | 87% | 1012.5 hPa | 0 mm | - | - | - |
| 1777753201 | 10° C | 87% | 1011.7 hPa | 0 mm | - | - | - |
| 1777749601 | 10.56° C | 85% | 1011.5 hPa | 0 mm | - | - | - |
| 1777748402 | 10.56° C | 84% | 1011.4 hPa | 0 mm | - | - | - |
| 1777744802 | 10.56° C | 84% | 1011.4 hPa | 0 mm | - | - | - |
| 1777742402 | 9.44° C | 84% | 1011.7 hPa | 0 mm | - | - | - |
| 1777738802 | 9.44° C | 85% | 1012.4 hPa | 0 mm | - | - | - |
| 1777737602 | 9.44° C | 85% | 1012.6 hPa | 0 mm | - | - | - |
| 1777736402 | 10° C | 84% | 1012.7 hPa | 0 mm | - | - | - |
| 1777735202 | 10° C | 83% | 1012.5 hPa | 0 mm | - | - | - |
| 1777734003 | 10.56° C | 82% | 1012.6 hPa | 0 mm | - | - | - |
| 1777732801 | 10.56° C | 80% | 1012.9 hPa | 0 mm | - | - | - |
| 1777731601 | 10.56° C | 81% | 1012.8 hPa | 0 mm | - | - | - |
| 1777730401 | 10.56° C | 82% | 1012.8 hPa | 0 mm | - | - | - |
| 1777729201 | 11.11° C | 81% | 1013 hPa | 0 mm | - | - | - |
| 1777728001 | 10.56° C | 83% | 1013 hPa | 0 mm | - | - | - |
| 1777726801 | 11.11° C | 82% | 1013 hPa | 0 mm | - | - | - |
| 1777725601 | 11.11° C | 82% | 1012.8 hPa | 0 mm | - | - | - |
| 1777724401 | 11.11° C | 82% | 1012.9 hPa | 0 mm | - | - | - |
| 1777722002 | 11.67° C | 83% | 1012.7 hPa | 0 mm | - | - | - |
| 1777720802 | 12.22° C | 82% | 1012.6 hPa | 0 mm | - | - | - |
| 1777719602 | 12.22° C | 82% | 1012.6 hPa | 0 mm | - | - | - |
| 1777718402 | 13.33° C | 81% | 1012.3 hPa | 0 mm | - | - | - |
| 1777717202 | 13.33° C | 81% | 1012 hPa | 0 mm | - | - | - |
| 1777716002 | 14.44° C | 80% | 1011.4 hPa | 0 mm | - | - | - |
* Rain latest hour (hover to see other rain measurements)
** Current wind speed in m/s (hover to see current wind gust speed)